SWA663 KDAL-KMKE

Flight info

Callsign SWA663
Flight time N/A
Altitude 39000
Route SWTSR7 MLC SGF KOOOP CASHN MAROC JOT LEEDN GOPAC3
Aircraft B737/M-SADE2E3GIJ4RWZ/LB1D1

Departure

Time N/A
Airport Dallas Love Field (KDAL)

Arrival

Time 2026-04-10 22:02
Airport General Mitchell International Airport (KMKE)
Time Latitude Longitude Altitude Speed Heading
2026-04-10 21:53 42.56328 -88.21192 8287 ft 292 kts 44°
2026-04-10 21:53 42.57647 -88.19076 7789 ft 288 kts 44°
2026-04-10 21:54 42.58910 -88.17047 7345 ft 283 kts 45°
2026-04-10 21:54 42.60170 -88.15021 6878 ft 279 kts 45°
2026-04-10 21:54 42.61410 -88.13025 6414 ft 274 kts 45°
2026-04-10 21:54 42.62634 -88.11055 5901 ft 271 kts 46°
2026-04-10 21:55 42.63844 -88.09108 5450 ft 269 kts 47°
2026-04-10 21:55 42.65046 -88.07172 5091 ft 268 kts 47°
2026-04-10 21:55 42.66245 -88.05238 4762 ft 266 kts 47°
2026-04-10 21:55 42.67409 -88.03355 4671 ft 254 kts 47°
2026-04-10 21:56 42.68517 -88.01564 4574 ft 240 kts 47°
2026-04-10 21:56 42.69564 -87.99870 4454 ft 227 kts 46°
2026-04-10 21:56 42.70549 -87.98275 4155 ft 222 kts 47°
2026-04-10 21:56 42.71537 -87.96678 3792 ft 220 kts 47°
2026-04-10 21:57 42.72521 -87.95086 3419 ft 219 kts 47°
2026-04-10 21:57 42.73538 -87.93560 3037 ft 216 kts 34°
2026-04-10 21:57 42.74888 -87.92881 2642 ft 209 kts
2026-04-10 21:57 42.76338 -87.92638 2351 ft 210 kts
2026-04-10 21:58 42.77782 -87.92371 2260 ft 209 kts
2026-04-10 21:58 42.79224 -87.92123 2236 ft 208 kts
2026-04-10 21:58 42.80657 -87.91880 2232 ft 208 kts
2026-04-10 21:58 42.82095 -87.91637 2229 ft 208 kts
2026-04-10 21:59 42.83531 -87.91397 2238 ft 208 kts
2026-04-10 21:59 42.84952 -87.91154 2236 ft 200 kts
2026-04-10 21:59 42.86264 -87.90927 2196 ft 180 kts
2026-04-10 21:59 42.87466 -87.90721 1958 ft 167 kts
2026-04-10 22:00 42.88570 -87.90532 1758 ft 152 kts
2026-04-10 22:00 42.89557 -87.90364 1494 ft 136 kts
2026-04-10 22:00 42.90463 -87.90208 1292 ft 128 kts
2026-04-10 22:00 42.91350 -87.90056 1109 ft 129 kts
2026-04-10 22:01 42.92249 -87.89900 912 ft 132 kts
2026-04-10 22:01 42.93178 -87.89742 751 ft 135 kts
2026-04-10 22:01 42.94070 -87.89590 685 ft 119 kts
2026-04-10 22:01 42.94688 -87.89485 685 ft 58 kts
2026-04-10 22:02 42.94917 -87.89448 684 ft 16 kts
2026-04-10 22:02 42.94972 -87.89540 687 ft 14 kts 273°
2026-04-10 22:02 42.94972 -87.89669 687 ft 13 kts 269°
2026-04-10 22:02 42.94991 -87.89781 685 ft 12 kts 320°
2026-04-10 22:03 42.95046 -87.89820 684 ft 4 kts 330°
2026-04-10 22:03 42.95060 -87.89833 683 ft 1 kts 322°
2026-04-10 22:03 42.95059 -87.89839 686 ft 1 kts 264°
2026-04-10 22:03 42.95037 -87.89853 683 ft 4 kts 198°
2026-04-10 22:04 42.95013 -87.89870 682 ft 4 kts 230°
2026-04-10 22:04 42.95012 -87.89906 687 ft 2 kts 287°
2026-04-10 22:04 42.95019 -87.89927 687 ft 2 kts 293°
2026-04-10 22:04 42.95022 -87.89936 681 ft 0 kts 293°